Weather History for KBVE - January, 2013

Change the Weather History Date:

Saturday, January 12, 2013

  Actual Average Record
Temperature  
Mean Temperature 69 °F -  
Max Temperature 75 °F - - ()
Min Temperature 63 °F - - ()
Cooling Degree Days 4    
Growing Degree Days 19 (Base 50)    
Moisture  
Dew Point 68 °F    
Average Humidity 98    
Maximum Humidity 100    
Minimum Humidity 82    
Precipitation  
Precipitation 0.00 in - - ()
Sea Level Pressure  
Sea Level Pressure 30.01 in    
Wind  
Wind Speed 8 mph (SE)    
Max Wind Speed 14 mph    
Max Gust Speed 17 mph    
Visibility 2 miles    
Events Fog    
T = Trace of Precipitation, MM = Missing Value Source: NWS Daily Summary

Daily Weather History Graph

Daily Weather History Graph

Search for Another Location

Airport or City:

Trip Planner

Search our weather history database for the weather conditions in past years. The results will help you decide how hot, cold, wet, or windy it might be!

Date:

Astronomy

Jan. 12, 2013 Rise Set
Actual Time 6:53 AM CST 5:19 PM CST
Civil Twilight 6:27 AM CST 5:45 PM CST
Nautical Twilight 5:58 AM CST 6:14 PM CST
Astronomical Twilight 5:29 AM CST 6:43 PM CST
Moon 7:19 AM CST (1/12) 6:38 PM CST (1/12)
Length of Visible Light 11h 17m
Length of Day
10h 26m
New Moon, 1% of the Moon is Illuminated
Jan 12
New Moon
Jan 18
First Quarter
Jan 26
Full
Feb 3
Last Quarter
Feb 10
New

Hourly Weather History & Observations

Time (CST) Temp. Dew Point Humidity Pressure Visibility Wind Dir Wind Speed Gust Speed Precip Events Conditions
12:25 AM 68.0 °F 68.0 °F 100% 30.05 in 0.5 mi SE 9.2 mph - N/A Fog Fog
12:38 AM 66.2 °F 66.2 °F 100% 30.05 in 0.2 mi SE 8.1 mph - N/A Fog Fog
12:51 AM 66.9 °F 66.9 °F 100% 30.05 in 0.2 mi ESE 8.1 mph - N/A Fog Fog
1:51 AM 66.9 °F 66.9 °F 100% 30.06 in 0.2 mi SE 9.2 mph - N/A Fog Fog
2:12 AM 66.2 °F 66.2 °F 100% 30.05 in 0.5 mi SE 9.2 mph - N/A Fog Fog
2:37 AM 66.2 °F 66.2 °F 100% 30.04 in 0.2 mi ESE 8.1 mph - N/A Fog Fog
2:51 AM 64.9 °F 64.9 °F 100% 30.04 in 0.2 mi ESE 5.8 mph - N/A Fog Fog
3:51 AM 64.9 °F 64.9 °F 100% 30.03 in 0.2 mi ESE 5.8 mph - N/A Fog Fog
3:58 AM 64.4 °F 64.4 °F 100% 30.03 in 0.2 mi ESE 5.8 mph - N/A Fog Fog
4:51 AM 64.9 °F 64.9 °F 100% 30.02 in 0.2 mi ESE 5.8 mph - N/A Fog Fog
5:09 AM 64.4 °F 64.4 °F 100% 30.02 in 0.2 mi ESE 4.6 mph - N/A Fog Fog
5:51 AM 63.0 °F 63.0 °F 100% 30.03 in 0.2 mi ESE 4.6 mph - N/A Fog Fog
6:51 AM 63.0 °F 63.0 °F 100% 30.05 in 0.2 mi ESE 4.6 mph - N/A Fog Fog
7:51 AM 66.0 °F 66.0 °F 100% 30.06 in 0.2 mi SE 5.8 mph - N/A Fog Fog
8:00 AM 66.2 °F 66.2 °F 100% 30.06 in 0.2 mi ESE 4.6 mph - N/A Fog Fog
8:14 AM 68.0 °F 68.0 °F 100% 30.07 in 0.8 mi ESE 4.6 mph - N/A   Overcast
8:23 AM 68.0 °F 68.0 °F 100% 30.08 in 1.8 mi SE 4.6 mph - N/A   Overcast
8:30 AM 69.8 °F 69.8 °F 100% 30.08 in 3.0 mi SE 4.6 mph - N/A   Overcast
8:41 AM 68.0 °F 68.0 °F 100% 30.08 in 1.8 mi ESE 5.8 mph - N/A   Overcast
8:47 AM 68.0 °F 68.0 °F 100% 30.08 in 0.8 mi ESE 5.8 mph - N/A   Overcast
8:51 AM 68.0 °F 68.0 °F 100% 30.08 in 0.2 mi ESE 6.9 mph - N/A Fog Fog
9:09 AM 68.0 °F 68.0 °F 100% 30.08 in 0.5 mi ESE 5.8 mph - N/A Fog Fog
9:16 AM 68.0 °F 68.0 °F 100% 30.08 in 2.0 mi ESE 4.6 mph - N/A   Overcast
9:24 AM 69.8 °F 69.8 °F 100% 30.09 in 6.0 mi SE 4.6 mph - N/A   Overcast
9:51 AM 71.1 °F 71.1 °F 100% 30.09 in 5.0 mi ESE 5.8 mph - N/A   Mostly Cloudy
10:51 AM 72.0 °F 70.0 °F 93% 30.06 in 7.0 mi SE 11.5 mph 17.3 mph N/A   Overcast
11:51 AM 73.9 °F 70.0 °F 87% 30.03 in 8.0 mi SE 10.4 mph - N/A   Overcast
12:32 PM 75.2 °F 71.6 °F 89% 30.01 in 8.0 mi SSE 11.5 mph 17.3 mph N/A   Overcast
12:51 PM 75.0 °F 71.1 °F 87% 30.01 in 9.0 mi SE 8.1 mph - N/A   Overcast
12:58 PM 75.2 °F 71.6 °F 89% 30.01 in 8.0 mi SE 5.8 mph - N/A   Overcast
1:51 PM 75.0 °F 71.1 °F 87% 29.99 in 8.0 mi SE 6.9 mph - N/A   Overcast
2:39 PM 75.2 °F 71.6 °F 89% 29.99 in 9.0 mi SSE 13.8 mph - N/A   Scattered Clouds
2:51 PM 75.9 °F 71.1 °F 85% 29.99 in 9.0 mi SSE 11.5 mph - N/A   Partly Cloudy
3:51 PM 75.0 °F 69.1 °F 82% 29.99 in 9.0 mi SSE 11.5 mph - N/A   Clear
4:51 PM 73.0 °F 69.1 °F 87% 29.99 in 8.0 mi SE 9.2 mph - N/A   Mostly Cloudy
5:51 PM 68.0 °F 66.9 °F 96% 29.98 in 6.0 mi ESE 5.8 mph - N/A   Mostly Cloudy
6:15 PM 66.2 °F 66.2 °F 100% 29.98 in 4.0 mi ESE 6.9 mph - N/A   Overcast
6:23 PM 66.2 °F 66.2 °F 100% 29.98 in 1.8 mi ESE 6.9 mph - N/A   Overcast
6:30 PM 66.2 °F 66.2 °F 100% 29.98 in 0.8 mi ESE 6.9 mph - N/A   Mist
6:51 PM 66.0 °F 66.0 °F 100% 29.99 in 0.5 mi ESE 5.8 mph - N/A Fog Fog
7:25 PM 66.2 °F 66.2 °F 100% 29.97 in 0.2 mi ESE 6.9 mph - N/A Fog Fog
7:43 PM 66.2 °F 66.2 °F 100% 29.97 in 0.5 mi ESE 6.9 mph - N/A Fog Fog
7:51 PM 66.0 °F 66.0 °F 100% 29.96 in 0.5 mi ESE 8.1 mph - N/A Fog Fog
8:00 PM 66.2 °F 66.2 °F 100% 29.96 in 1.0 mi ESE 6.9 mph - N/A   Overcast
8:05 PM 66.2 °F 66.2 °F 100% 29.96 in 0.8 mi ESE 8.1 mph - N/A   Mist
8:27 PM 66.2 °F 66.2 °F 100% 29.96 in 0.2 mi SE 8.1 mph - N/A Fog Fog
8:34 PM 66.2 °F 66.2 °F 100% 29.96 in 0.5 mi SE 8.1 mph - N/A Fog Fog
8:49 PM 66.2 °F 66.2 °F 100% 29.96 in 0.8 mi SE 8.1 mph - N/A   Mist
8:51 PM 68.0 °F 68.0 °F 100% 29.96 in 1.0 mi SE 9.2 mph - N/A   Mist
9:18 PM 68.0 °F 68.0 °F 100% 29.96 in 0.8 mi SE 8.1 mph - N/A   Mist
9:32 PM 68.0 °F 68.0 °F 100% 29.96 in 1.2 mi SE 9.2 mph - N/A   Overcast
9:42 PM 68.0 °F 68.0 °F 100% 29.96 in 1.8 mi SE 9.2 mph - N/A   Overcast
9:51 PM 68.0 °F 68.0 °F 100% 29.96 in 1.0 mi SE 9.2 mph - N/A   Mist
9:56 PM 68.0 °F 68.0 °F 100% 29.96 in 0.8 mi SE 9.2 mph - N/A   Overcast
10:08 PM 68.0 °F 68.0 °F 100% 29.97 in 1.0 mi SE 9.2 mph - N/A   Overcast
10:23 PM 68.0 °F 68.0 °F 100% 29.97 in 2.0 mi SE 8.1 mph - N/A   Overcast
10:29 PM 68.0 °F 68.0 °F 100% 29.97 in 3.0 mi SE 6.9 mph - N/A   Overcast
10:51 PM 69.1 °F 69.1 °F 100% 29.97 in 4.0 mi SE 9.2 mph - N/A   Overcast
11:51 PM 69.1 °F 69.1 °F 100% 29.96 in 2.5 mi SE 6.9 mph - N/A   Overcast